SL-4 R/B (44438 NORAD) Tracking and Keplerian Element Data

This shows tracking and keplerian element data for the satellite.

Feedback or suggestion? Click here.




ElementValue
Catalog44438
NameSL-4 R/B
Epoch Orbit41
Epoch Day204.27495226
Epoch Year2019
RAAN180.6423
Inclination51.6118
Eccentricity0.0004681
Argument of Perigee79.895
Mean Anonmoly59.8333
Mean Motion16.37860493
Decay Rate0.03515865
L11 44438U 19041B 19204.27495226 .03515865 12349-4 32852-3 0 9990
L22 44438 51.6118 180.6423 0004681 79.8950 59.8333 16.37860493 411

Live tracking and technical data element details for SL-4 R/B (NORAD 44438). SL-4 R/B can be tracked NOW for your location showing map with azimuth and elevation plus other details from your city location.

Track the satellite on the map from your city or location and see movement details for azimuth, elevation, latitude, longitude, range, height, and movement on the map or in text.







IsCatalogInMostPopularTable: catalog: 44438, numindb: 23
Update: records affected: 1



GetName: 44438 SL-4 R/B

Hit Count: updated at: Tue, 22 Oct 2019 23:40:11 GMT